Weather History for Patna, India

Change the Weather History Date:

Thursday, December 6, 2012

  Actual Average Record
Temperature  
Mean Temperature 64 °F -  
Max Temperature 77 °F 75 °F 80 °F (2002)
Min Temperature 50 °F 57 °F 50 °F (2012)
Degree Days  
Heating Degree Days 2    
Growing Degree Days 14 (Base 50)    
Moisture  
Dew Point 50 °F    
Average Humidity 57    
Maximum Humidity 94    
Minimum Humidity 27    
Precipitation  
Precipitation 0.00 in - - ()
Sea Level Pressure  
Sea Level Pressure 29.92 in    
Wind  
Wind Speed 1 mph ()    
Max Wind Speed 5 mph    
Max Gust Speed -    
Visibility 1.1 miles    
Events Fog    
Averages and records for this station are not official NWS values.
T = Trace of Precipitation, MM = Missing Value Source: Averaged Metar Reports

Daily Weather History Graph

Daily Weather History Graph

Search for Another Location

Airport:

Trip Planner

Search our weather history database for the weather conditions in past years. The results will help you decide how hot, cold, wet, or windy it might be!

Date:

Astronomy

Dec. 06, 2012 Rise Set
Actual Time 6:22 AM IST 4:59 PM IST
Civil Twilight 5:57 AM IST 5:24 PM IST
Nautical Twilight 5:28 AM IST 5:52 PM IST
Astronomical Twilight 5:00 AM IST 6:20 PM IST
Moon 11:47 PM IST (12/6) 11:31 AM IST (12/6)
Length of Visible Light 11h 26m
Length of Day
10h 36m
Waning Gibbous, 54% of the Moon is Illuminated
Dec 6
Waning Gibbous
Dec 6
Last Quarter
Dec 13
New
Dec 20
First Quarter
Dec 28
Full

Hourly Weather History & Observations

Time (IST) Temp. Dew Point Humidity Pressure Visibility Wind Dir Wind Speed Gust Speed Precip Events Conditions
2:30 AM 54 °F 51 °F 84% 29.93 in 1 mi Calm Calm - -   Mist
5:30 AM 52 °F 48 °F 82% 29.94 in 1 mi Calm Calm - -   Mist
6:20 AM 51.8 °F 50.0 °F 94% 29.95 in 0.6 mi Calm Calm - N/A Fog Fog
7:20 AM 53.6 °F 50.0 °F 88% 29.95 in 0.6 mi Calm Calm - N/A Fog Fog
8:30 AM 58 °F 48 °F 62% 30.00 in 1 mi Calm Calm - -   Mist
9:20 AM 60.8 °F 48.2 °F 63% 30.01 in 0.9 mi West 4.6 mph - N/A   Mist
10:20 AM 64.4 °F 46.4 °F 52% 29.98 in 1.1 mi West 4.6 mph - N/A   Mist
11:20 AM 69.8 °F 50.0 °F 49% 29.95 in 1.2 mi WSW 4.6 mph - N/A   Haze
11:30 AM 71 °F 51 °F 38% 29.96 in 1 mi Calm Calm - -   Haze
12:20 PM 73.4 °F 50.0 °F 44% 29.92 in 1.2 mi SSW 3.5 mph - N/A   Haze
1:20 PM 75.2 °F 48.2 °F 38% 29.89 in 1.2 mi Calm Calm - N/A   Haze
2:20 PM 77.0 °F 50.0 °F 39% 29.86 in 1.4 mi Calm Calm - N/A   Haze
2:30 PM 77 °F 50 °F 27% 29.87 in 1 mi Calm Calm - -   Haze
4:20 PM 73.4 °F 51.8 °F 47% 29.83 in 1.4 mi Calm Calm - N/A   Haze
5:20 PM 73.4 °F 48.2 °F 41% 29.86 in 1.4 mi Calm Calm - N/A   Haze
5:30 PM 73 °F 49 °F 32% 29.86 in 1 mi Calm Calm - -   Haze
6:20 PM 71.6 °F 50.0 °F 46% 29.86 in 1.4 mi Calm Calm - N/A   Haze
8:20 PM 60.8 °F 51.8 °F 72% 29.92 in 1.2 mi Calm Calm - N/A   Haze
8:30 PM 60 °F 53 °F 69% 29.91 in 1 mi Calm Calm - -   Haze
11:30 PM 57 °F 51 °F 73% 29.92 in 1 mi Calm Calm - -   Haze